User: anonymous   Login
Location: Eaton
(41.3139°N, 82.0207°W)
Time: 13:47:27
(UTC+00:00)
Language:

Cosmos 1464 Rocket - Orbit

View from above orbital plane
View from above orbital plane
View from above satellite
View from above satellite

Ground track
Ground track

The orbit data is extracted from the following two-line orbital elements,

1 14085U 83048B   21265.03839562  .00000044  00000-0  28530-4 0  9993
2 14085  82.9482  13.4257 0034718  70.1437 290.3456 13.76324801924942
Epoch (UTC): 22 September 2021 00:55:17
Eccentricity: 0.0034718
inclination: 82.9482°
perigee height: 951 km
apogee height: 1002 km
right ascension of ascending node: 13.4257°
argument of perigee: 70.1437°
revolutions per day: 13.76324801
mean anomaly at epoch: 290.3456°
orbit number at epoch: 92494

The dashed part of the orbit path shows where the satellite is in the earth's shadow,  

DLR